| time (UTC) | temp F | wind direction | speed knots | gust knots | rain 1hr in | rain 24hr in | rain mn in | humidity % | barometer mb |
| 20260507174539 | 53 | 88 | 2.6 | 8.7 | 0.00 | 0.07 | 0.05 | 63 | 1011.8 |
| 20260507174017 | 53 | 108 | 5.2 | 8.7 | 0.00 | 0.07 | 0.05 | 63 | 1011.8 |
| 20260507173509 | 53 | 93 | 3.5 | 5.2 | 0.00 | 0.07 | 0.05 | 66 | 1012.1 |
| 20260507173025 | 53 | 103 | 2.6 | 6.1 | 0.00 | 0.07 | 0.05 | 66 | 1012.1 |
| 20260507172511 | 53 | 74 | 2.6 | 6.1 | 0.00 | 0.07 | 0.05 | 66 | 1012.0 |
| 20260507172010 | 53 | 85 | 3.5 | 7.8 | 0.00 | 0.07 | 0.05 | 65 | 1012.0 |
| 20260507171528 | 53 | 73 | 3.5 | 7.8 | 0.00 | 0.07 | 0.05 | 67 | 1011.9 |
| 20260507171010 | 53 | 112 | 4.3 | 7.0 | 0.00 | 0.07 | 0.05 | 65 | 1012.1 |
| 20260507170503 | 53 | 121 | 2.6 | 6.1 | 0.00 | 0.07 | 0.05 | 65 | 1012.2 |
| 20260507170026 | 52 | 128 | 2.6 | 6.1 | 0.00 | 0.07 | 0.05 | 68 | 1012.2 |
| 20260507165513 | 52 | 142 | 1.7 | 5.2 | 0.00 | 0.07 | 0.05 | 70 | 1012.4 |
| 20260507165007 | 52 | 108 | 1.7 | 7.8 | 0.00 | 0.07 | 0.05 | 69 | 1012.6 |
| 20260507164525 | 53 | 70 | 3.5 | 7.8 | 0.00 | 0.07 | 0.05 | 67 | 1012.5 |
| 20260507164009 | 53 | 36 | 4.3 | 7.8 | 0.00 | 0.07 | 0.05 | 64 | 1012.5 |
| 20260507163505 | 54 | 35 | 3.5 | 7.0 | 0.00 | 0.07 | 0.05 | 63 | 1012.8 |
| 20260507163023 | 54 | 184 | 4.3 | 7.0 | 0.00 | 0.07 | 0.05 | 57 | 1012.5 |
| 20260507162511 | 54 | 78 | 4.3 | 7.0 | 0.00 | 0.07 | 0.05 | 58 | 1012.7 |
| 20260507162008 | 54 | 90 | 3.5 | 6.1 | 0.00 | 0.07 | 0.05 | 59 | 1013.0 |
| 20260507161506 | 54 | 53 | 3.5 | 6.1 | 0.00 | 0.07 | 0.05 | 56 | 1013.3 |
| 20260507161005 | 54 | 102 | 1.7 | 7.0 | 0.00 | 0.07 | 0.05 | 57 | 1013.6 |
| 20260507160508 | 54 | 84 | 2.6 | 9.6 | 0.00 | 0.07 | 0.05 | 57 | 1013.2 |
| 20260507160007 | 54 | 49 | 4.3 | 8.7 | 0.00 | 0.07 | 0.05 | 56 | 1013.2 |
| 20260507155504 | 54 | 113 | 4.3 | 8.7 | 0.00 | 0.07 | 0.05 | 57 | 1013.0 |
| 20260507155010 | 54 | 130 | 3.5 | 12.2 | 0.00 | 0.07 | 0.05 | 58 | 1013.0 |
| 20260507154504 | 54 | 76 | 7.0 | 12.2 | 0.00 | 0.07 | 0.05 | 56 | 1012.8 |
| 20260507154009 | 54 | 138 | 6.1 | 9.6 | 0.00 | 0.07 | 0.05 | 58 | 1012.9 |
| 20260507153511 | 54 | 73 | 4.3 | 9.6 | 0.00 | 0.07 | 0.05 | 60 | 1013.1 |
| 20260507153007 | 54 | 80 | 6.1 | 11.3 | 0.00 | 0.07 | 0.05 | 58 | 1013.2 |
| 20260507152506 | 54 | 82 | 6.1 | 11.3 | 0.00 | 0.07 | 0.05 | 1013.0 | |
| 20260507152001 | 54 | 46 | 5.2 | 11.3 | 0.00 | 0.07 | 0.05 | 60 | 1013.2 |
| 20260507151508 | 54 | 90 | 6.1 | 11.3 | 0.00 | 0.07 | 0.05 | 60 | 1013.1 |
| 20260507151006 | 54 | 80 | 2.6 | 8.7 | 0.00 | 0.07 | 0.05 | 60 | 1013.2 |
| 20260507150503 | 54 | 50 | 6.1 | 8.7 | 0.00 | 0.07 | 0.05 | 60 | 1013.4 |
| 20260507150011 | 54 | 36 | 3.5 | 11.3 | 0.00 | 0.07 | 0.05 | 62 | 1013.2 |
| 20260507145512 | 54 | 50 | 4.3 | 12.2 | 0.00 | 0.07 | 0.05 | 61 | 1013.1 |
| 20260507145006 | 54 | 64 | 7.0 | 12.2 | 0.00 | 0.07 | 0.05 | 61 | 1013.2 |
| 20260507144510 | 54 | 56 | 5.2 | 12.2 | 0.00 | 0.07 | 0.05 | 1013.2 | |
| 20260507144007 | 54 | 55 | 7.8 | 14.8 | 0.00 | 0.08 | 0.05 | 64 | 1013.4 |
| 20260507143504 | 54 | 49 | 7.8 | 14.8 | 0.00 | 0.08 | 0.05 | 64 | 1013.4 |
| 20260507143012 | 54 | 68 | 8.7 | 14.8 | 0.00 | 0.10 | 0.05 | 62 | 1013.5 |
| 20260507142509 | 54 | 67 | 7.8 | 13.0 | 0.00 | 0.10 | 0.05 | 63 | 1013.5 |
| 20260507142004 | 54 | 150 | 4.3 | 9.6 | 0.00 | 0.10 | 0.05 | 66 | 1013.6 |
| 20260507141512 | 54 | 88 | 4.3 | 10.4 | 0.00 | 0.10 | 0.05 | 68 | 1013.6 |
| 20260507141010 | 54 | 39 | 4.3 | 10.4 | 0.00 | 0.10 | 0.05 | 67 | 1013.8 |
| 20260507140503 | 54 | 86 | 3.5 | 9.6 | 0.00 | 0.11 | 0.05 | 67 | 1013.8 |
| 20260507140031 | 54 | 78 | 6.1 | 13.9 | 0.00 | 0.12 | 0.05 | 67 | 1013.6 |
| 20260507135507 | 54 | 45 | 5.2 | 13.9 | 0.00 | 0.15 | 0.05 | 68 | 1013.6 |
| 20260507135007 | 55 | 54 | 7.0 | 11.3 | 0.00 | 0.16 | 0.05 | 68 | 1013.5 |
| 20260507134512 | 55 | 352 | 7.0 | 11.3 | 0.00 | 0.16 | 0.05 | 70 | 1013.5 |
| 20260507134007 | 55 | 104 | 3.5 | 10.4 | 0.00 | 0.16 | 0.05 | 74 | 1013.5 |
| 20260507133504 | 55 | 57 | 6.1 | 11.3 | 0.00 | 0.16 | 0.05 | 73 | 1013.4 |
| 20260507133017 | 55 | 75 | 6.1 | 11.3 | 0.00 | 0.16 | 0.05 | 76 | 1013.5 |
| 20260507132508 | 55 | 74 | 6.1 | 11.3 | 0.00 | 0.16 | 0.05 | 1013.5 | |
| 20260507132003 | 55 | 49 | 6.1 | 13.9 | 0.00 | 0.16 | 0.05 | 76 | 1013.5 |
| 20260507131527 | 55 | 46 | 7.0 | 13.9 | 0.00 | 0.16 | 0.05 | 76 | 1013.4 |
| 20260507131010 | 55 | 40 | 7.0 | 12.2 | 0.00 | 0.16 | 0.05 | 77 | 1013.3 |
| 20260507130503 | 55 | 50 | 5.2 | 12.2 | 0.00 | 0.16 | 0.05 | 77 | 1013.3 |
| 20260507130018 | 55 | 79 | 5.2 | 13.0 | 0.00 | 0.17 | 0.05 | 76 | 1013.2 |
| 20260507125512 | 55 | 43 | 6.1 | 13.0 | 0.00 | 0.17 | 0.05 | 77 | 1013.2 |
| 20260507125004 | 55 | 40 | 5.2 | 11.3 | 0.00 | 0.17 | 0.05 | 78 | 1013.2 |
| 20260507124522 | 55 | 74 | 5.2 | 8.7 | 0.00 | 0.18 | 0.05 | 80 | 1013.2 |
| 20260507124003 | 55 | 57 | 4.3 | 7.0 | 0.00 | 0.18 | 0.05 | 80 | 1013.4 |
| 20260507123507 | 55 | 53 | 2.6 | 9.6 | 0.00 | 0.18 | 0.05 | 79 | 1013.4 |
| 20260507123026 | 54 | 141 | 5.2 | 9.6 | 0.00 | 0.18 | 0.05 | 79 | 1013.3 |
| 20260507122503 | 54 | 59 | 4.3 | 10.4 | 0.00 | 0.19 | 0.05 | 80 | 1013.2 |
| 20260507122004 | 54 | 56 | 3.5 | 10.4 | 0.00 | 0.19 | 0.05 | 79 | 1013.0 |
| 20260507121521 | 54 | 55 | 7.0 | 9.6 | 0.00 | 0.19 | 0.05 | 79 | 1013.0 |
| 20260507121004 | 54 | 177 | 5.2 | 8.7 | 0.00 | 0.19 | 0.05 | 80 | 1013.0 |
| 20260507120509 | 54 | 67 | 3.5 | 8.7 | 0.00 | 0.19 | 0.05 | 80 | 1012.9 |
| 20260507120029 | 54 | 61 | 3.5 | 7.8 | 0.00 | 0.19 | 0.05 | 81 | 1013.0 |
| 20260507115504 | 54 | 140 | 4.3 | 10.4 | 0.00 | 0.19 | 0.05 | 80 | 1012.6 |
| 20260507115007 | 54 | 77 | 7.0 | 10.4 | 0.00 | 0.19 | 0.05 | 80 | 1012.5 |
| 20260507114525 | 54 | 51 | 4.3 | 10.4 | 0.00 | 0.19 | 0.05 | 81 | 1012.7 |
| 20260507114004 | 54 | 41 | 5.2 | 8.7 | 0.00 | 0.19 | 0.05 | 82 | 1012.7 |
| 20260507113508 | 54 | 49 | 3.5 | 7.8 | 0.00 | 0.20 | 0.05 | 82 | 1012.7 |
| 20260507113055 | 54 | 44 | 3.5 | 7.0 | 0.00 | 0.20 | 0.05 | 82 | 1012.6 |
| 20260507112506 | 53 | 57 | 3.5 | 10.4 | 0.00 | 0.20 | 0.05 | 81 | 1012.5 |
| 20260507112008 | 53 | 39 | 5.2 | 10.4 | 0.00 | 0.20 | 0.05 | 81 | 1012.5 |
| 20260507111527 | 53 | 53 | 4.3 | 11.3 | 0.00 | 0.20 | 0.05 | 81 | 1012.1 |
| 20260507111004 | 53 | 48 | 6.1 | 11.3 | 0.00 | 0.20 | 0.05 | 81 | 1012.0 |
| 20260507110506 | 53 | 42 | 3.5 | 9.6 | 0.00 | 0.20 | 0.05 | 82 | 1012.3 |
| 20260507110029 | 53 | 56 | 4.3 | 9.6 | 0.00 | 0.20 | 0.05 | 82 | 1012.3 |
| 20260507105504 | 53 | 79 | 4.3 | 10.4 | 0.00 | 0.20 | 0.05 | 82 | 1012.3 |
| 20260507105007 | 53 | 67 | 6.1 | 11.3 | 0.00 | 0.20 | 0.05 | 81 | 1012.6 |
| 20260507104527 | 53 | 44 | 4.3 | 11.3 | 0.00 | 0.20 | 0.05 | 82 | 1012.4 |
| 20260507104006 | 53 | 66 | 5.2 | 11.3 | 0.00 | 0.20 | 0.05 | 83 | 1012.4 |
| 20260507103510 | 53 | 26 | 5.2 | 11.3 | 0.00 | 0.20 | 0.05 | 84 | 1012.3 |
| 20260507103023 | 53 | 17 | 5.2 | 9.6 | 0.00 | 0.20 | 0.05 | 84 | 1012.3 |
| 20260507102505 | 53 | 45 | 4.3 | 11.3 | 0.00 | 0.20 | 0.05 | 85 | 1012.2 |
| 20260507102009 | 53 | 99 | 6.1 | 11.3 | 0.00 | 0.20 | 0.05 | 85 | 1011.8 |
| 20260507101527 | 53 | 27 | 2.6 | 7.8 | 0.00 | 0.20 | 0.05 | 86 | 1012.2 |
| 20260507101007 | 53 | 57 | 4.3 | 8.7 | 0.00 | 0.20 | 0.05 | 85 | 1012.0 |
| 20260507100507 | 53 | 55 | 4.3 | 8.7 | 0.00 | 0.20 | 0.05 | 85 | 1012.1 |
| 20260507100013 | 53 | 102 | 5.2 | 7.8 | 0.00 | 0.20 | 0.05 | 85 | 1012.0 |
| 20260507095506 | 53 | 74 | 4.3 | 7.0 | 0.00 | 0.20 | 0.05 | 85 | 1011.9 |
| 20260507095008 | 53 | 114 | 3.5 | 7.8 | 0.00 | 0.20 | 0.05 | 85 | 1011.9 |
| 20260507094507 | 53 | 91 | 3.5 | 7.8 | 0.00 | 0.20 | 0.05 | 85 | 1012.2 |
| 20260507094006 | 53 | 53 | 4.3 | 7.8 | 0.00 | 0.20 | 0.05 | 85 | 1012.4 |
| 20260507093507 | 53 | 78 | 3.5 | 7.8 | 0.00 | 0.20 | 0.05 | 85 | 1012.2 |
| 20260507093013 | 53 | 34 | 4.3 | 7.8 | 0.00 | 0.20 | 0.05 | 85 | 1012.2 |
| 20260507092511 | 53 | 91 | 2.6 | 5.2 | 0.00 | 0.20 | 0.05 | 86 | 1012.2 |
| 20260507092011 | 53 | 67 | 3.5 | 7.8 | 0.00 | 0.20 | 0.05 | 86 | 1012.2 |
| 20260507091513 | 53 | 31 | 3.5 | 7.8 | 0.00 | 0.20 | 0.05 | 86 | 1012.0 |
| 20260507091008 | 53 | 94 | 3.5 | 8.7 | 0.00 | 0.20 | 0.05 | 87 | 1012.1 |
| 20260507090512 | 53 | 63 | 4.3 | 8.7 | 0.00 | 0.20 | 0.05 | 87 | 1012.0 |
| 20260507090012 | 53 | 91 | 4.3 | 10.4 | 0.00 | 0.20 | 0.05 | 87 | 1011.9 |
| 20260507085508 | 53 | 53 | 6.1 | 10.4 | 0.00 | 0.20 | 0.05 | 87 | 1011.7 |
| 20260507085009 | 53 | 48 | 5.2 | 9.6 | 0.00 | 0.20 | 0.05 | 88 | 1011.8 |
| 20260507084530 | 53 | 44 | 3.5 | 8.7 | 0.00 | 0.20 | 0.05 | 89 | 1011.9 |
| 20260507084010 | 53 | 53 | 3.5 | 9.6 | 0.00 | 0.20 | 0.05 | 88 | 1011.6 |
| 20260507083511 | 53 | 73 | 5.2 | 9.6 | 0.00 | 0.20 | 0.05 | 89 | 1011.4 |
| 20260507083021 | 54 | 17 | 5.2 | 9.6 | 0.00 | 0.20 | 0.05 | 89 | 1011.8 |
| 20260507082509 | 54 | 63 | 4.3 | 7.8 | 0.00 | 0.20 | 0.05 | 90 | 1011.8 |
| 20260507082011 | 54 | 70 | 4.3 | 7.0 | 0.01 | 0.20 | 0.05 | 90 | 1011.7 |
| 20260507081514 | 54 | 26 | 2.6 | 9.6 | 0.01 | 0.20 | 0.05 | 89 | 1011.8 |
| 20260507081012 | 54 | 35 | 3.5 | 9.6 | 0.01 | 0.20 | 0.05 | 89 | 1011.9 |
| 20260507080507 | 54 | 58 | 4.3 | 7.8 | 0.01 | 0.20 | 0.05 | 89 | 1012.0 |
| 20260507080016 | 54 | 90 | 5.2 | 7.8 | 0.01 | 0.20 | 0.05 | 89 | 1011.9 |
| 20260507075508 | 54 | 31 | 4.3 | 11.3 | 0.01 | 0.20 | 0.05 | 89 | 1011.8 |
| 20260507075015 | 54 | 76 | 5.2 | 11.3 | 0.01 | 0.20 | 0.05 | 88 | 1011.5 |
| 20260507074516 | 54 | 76 | 3.5 | 10.4 | 0.01 | 0.20 | 0.05 | 89 | 1011.4 |
| 20260507074008 | 54 | 58 | 5.2 | 10.4 | 0.01 | 0.20 | 0.05 | 89 | 1011.3 |
| 20260507073508 | 54 | 118 | 6.1 | 12.2 | 0.01 | 0.20 | 0.05 | 89 | 1011.3 |
| 20260507073024 | 55 | 61 | 8.7 | 13.0 | 0.01 | 0.20 | 0.05 | 89 | 1011.2 |
| 20260507072512 | 55 | 49 | 8.7 | 16.5 | 0.01 | 0.20 | 0.05 | 89 | 1011.2 |
| 20260507072003 | 55 | 38 | 9.6 | 16.5 | 0.00 | 0.19 | 0.04 | 89 | 1010.9 |
| 20260507071520 | 55 | 65 | 6.1 | 12.2 | 0.00 | 0.19 | 0.04 | 90 | 1010.9 |
| 20260507071004 | 56 | 46 | 5.2 | 12.2 | 0.00 | 0.19 | 0.04 | 90 | 1010.8 |
| 20260507070504 | 56 | 52 | 5.2 | 9.6 | 0.01 | 0.19 | 0.04 | 90 | 1011.2 |
| 20260507070023 | 56 | 57 | 5.2 | 11.3 | 0.01 | 0.19 | 0.04 | 90 | 1011.2 |
| 20260507065502 | 56 | 83 | 7.0 | 13.0 | 0.01 | 0.19 | 0.04 | 91 | 1011.1 |
| 20260507065006 | 57 | 94 | 7.0 | 13.0 | 0.01 | 0.19 | 0.04 | 91 | 1011.0 |
| 20260507064522 | 57 | 52 | 7.8 | 12.2 | 0.01 | 0.19 | 0.04 | 91 | 1011.1 |
| 20260507064003 | 57 | 37 | 7.0 | 10.4 | 0.01 | 0.19 | 0.04 | 92 | 1011.1 |
| 20260507063506 | 57 | 46 | 5.2 | 13.0 | 0.01 | 0.19 | 0.04 | 92 | 1011.1 |
| 20260507063023 | 57 | 73 | 7.0 | 13.0 | 0.01 | 0.19 | 0.04 | 92 | 1011.1 |
| 20260507062503 | 57 | 72 | 4.3 | 10.4 | 0.01 | 0.19 | 0.04 | 92 | 1011.1 |
| 20260507062006 | 57 | 14 | 3.5 | 13.0 | 0.01 | 0.19 | 0.04 | 92 | 1011.5 |
| 20260507061530 | 57 | 319 | 2.6 | 13.0 | 0.01 | 0.19 | 0.04 | 92 | 1011.4 |
| 20260507061005 | 58 | 59 | 7.8 | 13.0 | 0.02 | 0.19 | 0.04 | 92 | 1011.2 |
| 20260507060506 | 58 | 28 | 5.2 | 9.6 | 0.01 | 0.18 | 0.03 | 92 | 1011.4 |
| 20260507060033 | 58 | 26 | 7.0 | 9.6 | 0.01 | 0.18 | 0.03 | 92 | 1011.2 |
| 20260507055503 | 58 | 360 | 7.0 | 9.6 | 0.01 | 0.18 | 0.03 | 91 | 1010.8 |
| 20260507055007 | 58 | 26 | 7.0 | 9.6 | 0.01 | 0.18 | 0.03 | 91 | 1010.5 |
| 20260507054535 | 58 | 45 | 3.5 | 7.8 | 0.02 | 0.18 | 0.03 | 91 | 1009.9 |
| 20260507054007 | 58 | 109 | 3.5 | 9.6 | 0.02 | 0.18 | 0.03 | 91 | 1009.7 |
| 20260507053507 | 58 | 104 | 6.1 | 9.6 | 0.02 | 0.18 | 0.03 | 92 | 1009.6 |
| 20260507053023 | 59 | 51 | 5.2 | 9.6 | 0.02 | 0.18 | 0.03 | 92 | 1009.9 |
| 20260507052502 | 59 | 115 | 5.2 | 12.2 | 0.02 | 0.18 | 0.03 | 92 | 1009.6 |
| 20260507052007 | 59 | 75 | 6.1 | 12.2 | 0.03 | 0.18 | 0.03 | 91 | 1009.8 |
| 20260507051524 | 60 | 95 | 7.0 | 11.3 | 0.03 | 0.18 | 0.03 | 91 | 1010.6 |
| 20260507051008 | 60 | 123 | 6.1 | 10.4 | 0.02 | 0.17 | 0.02 | 91 | 1010.8 |
| 20260507050505 | 61 | 108 | 7.0 | 9.6 | 0.02 | 0.17 | 0.02 | 91 | 1011.1 |
| 20260507050049 | 62 | 44 | 5.2 | 9.6 | 0.02 | 0.17 | 0.02 | 91 | 1011.1 |
| 20260507045506 | 62 | 31 | 6.1 | 7.8 | 0.03 | 0.17 | 0.02 | 91 | 1011.2 |
| 20260507045007 | 62 | 42 | 3.5 | 5.2 | 0.04 | 0.17 | 0.02 | 91 | 1011.2 |
| 20260507044531 | 63 | 28 | 1.7 | 8.7 | 0.03 | 0.16 | 0.01 | 92 | 1011.2 |
| 20260507044007 | 63 | 352 | 3.5 | 8.7 | 0.03 | 0.16 | 0.01 | 92 | 1011.0 |
| 20260507043507 | 63 | 24 | 3.5 | 7.0 | 0.03 | 0.16 | 0.01 | 92 | 1010.8 |
| 20260507043009 | 63 | 22 | 3.5 | 7.0 | 0.03 | 0.16 | 0.01 | 91 | 1010.6 |
| 20260507042509 | 63 | 53 | 3.5 | 7.0 | 0.03 | 0.16 | 0.01 | 91 | 1010.4 |
| 20260507042007 | 64 | 20 | 2.6 | 6.1 | 0.02 | 0.15 | 0.00 | 91 | 1010.5 |
| 20260507041508 | 64 | 32 | 1.7 | 1.7 | 0.02 | 0.15 | 0.00 | 91 | 1010.7 |
| 20260507041007 | 64 | 5 | 0.9 | 1.7 | 0.02 | 0.15 | 0.00 | 90 | 1010.7 |
| 20260507040509 | 64 | 360 | 0.9 | 1.7 | 0.02 | 0.15 | 0.00 | 89 | 1010.5 |
| 20260507040015 | 64 | 234 | 0.0 | 1.7 | 0.02 | 0.15 | 0.00 | 89 | 1010.5 |
| 20260507035505 | 64 | 205 | 0.0 | 1.7 | 0.01 | 0.14 | 0.14 | 89 | 1010.7 |
| 20260507035007 | 64 | 205 | 0.0 | 1.7 | 0.00 | 0.13 | 0.13 | 88 | 1010.6 |
| 20260507034516 | 64 | 204 | 0.0 | 1.7 | 0.00 | 0.13 | 0.13 | 87 | 1010.7 |
| 20260507034013 | 64 | 339 | 0.0 | 1.7 | 0.00 | 0.13 | 0.13 | 87 | 1010.8 |
| 20260507033507 | 64 | 339 | 0.0 | 1.7 | 0.00 | 0.13 | 0.13 | 87 | 1010.5 |
| 20260507033019 | 64 | 340 | 0.0 | 1.7 | 0.00 | 0.13 | 0.13 | 87 | 1010.2 |
| 20260507032511 | 65 | 339 | 0.0 | 1.7 | 0.00 | 0.13 | 0.13 | 87 | 1010.1 |
| 20260507032011 | 65 | 339 | 0.9 | 1.7 | 0.00 | 0.13 | 0.13 | 86 | 1010.1 |
| 20260507031514 | 65 | 339 | 0.0 | 1.7 | 0.00 | 0.13 | 0.13 | 86 | 1010.0 |
| 20260507031011 | 65 | 219 | 0.0 | 1.7 | 0.00 | 0.13 | 0.13 | 86 | 1010.1 |
| 20260507030512 | 65 | 219 | 0.0 | 1.7 | 0.00 | 0.13 | 0.13 | 86 | 1010.2 |
| 20260507030013 | 65 | 217 | 0.0 | 1.7 | 0.00 | 0.13 | 0.13 | 86 | 1010.4 |
| 20260507025509 | 65 | 307 | 0.0 | 1.7 | 0.00 | 0.13 | 0.13 | 86 | 1010.5 |
| 20260507025017 | 65 | 307 | 0.0 | 1.7 | 0.00 | 0.13 | 0.13 | 86 | 1010.5 |
| 20260507024518 | 65 | 307 | 0.0 | 1.7 | 0.00 | 0.13 | 0.13 | 85 | 1010.2 |
| 20260507024012 | 65 | 309 | 0.0 | 1.7 | 0.00 | 0.13 | 0.13 | 85 | 1010.0 |
| 20260507023511 | 65 | 279 | 0.9 | 2.6 | 0.00 | 0.13 | 0.13 | 86 | 1010.1 |
| 20260507023016 | 65 | 290 | 0.9 | 2.6 | 0.00 | 0.13 | 0.13 | 86 | 1010.1 |
| 20260507022509 | 65 | 282 | 0.9 | 1.7 | 0.00 | 0.13 | 0.13 | 86 | 1009.8 |
| 20260507022012 | 65 | 297 | 0.9 | 1.7 | 0.00 | 0.13 | 0.13 | 86 | 1009.7 |
| 20260507021536 | 65 | 261 | 0.0 | 1.7 | 0.00 | 0.13 | 0.13 | 86 | 1009.4 |
| 20260507021011 | 65 | 230 | 0.0 | 1.7 | 0.00 | 0.13 | 0.13 | 85 | 1009.4 |
| 20260507020504 | 65 | 291 | 0.0 | 3.5 | 0.00 | 0.13 | 0.13 | 85 | 1009.4 |
| 20260507020023 | 65 | 270 | 0.9 | 3.5 | 0.00 | 0.13 | 0.13 | 85 | 1009.4 |
| 20260507015509 | 65 | 236 | 0.0 | 1.7 | 0.00 | 0.13 | 0.13 | 85 | 1009.6 |
| 20260507015007 | 65 | 252 | 0.0 | 1.7 | 0.00 | 0.13 | 0.13 | 84 | 1009.8 |
| 20260507014523 | 66 | 228 | 0.0 | 2.6 | 0.00 | 0.13 | 0.13 | 84 | 1009.8 |
| 20260507014015 | 66 | 267 | 0.9 | 2.6 | 0.00 | 0.13 | 0.13 | 83 | 1009.7 |
| 20260507013503 | 66 | 275 | 0.0 | 3.5 | 0.00 | 0.13 | 0.13 | 83 | 1009.9 |
| 20260507013023 | 66 | 290 | 0.9 | 3.5 | 0.00 | 0.13 | 0.13 | 83 | 1009.8 |
| 20260507012509 | 66 | 265 | 0.9 | 3.5 | 0.00 | 0.13 | 0.13 | 83 | 1009.8 |
| 20260507012009 | 66 | 263 | 1.7 | 4.3 | 0.00 | 0.13 | 0.13 | 83 | 1009.8 |
| 20260507011530 | 66 | 200 | 1.7 | 5.2 | 0.00 | 0.13 | 0.13 | 83 | 1009.8 |
| 20260507011007 | 66 | 261 | 1.7 | 6.1 | 0.00 | 0.13 | 0.13 | 82 | 1009.8 |
| 20260507010508 | 66 | 254 | 2.6 | 6.1 | 0.00 | 0.13 | 0.13 | 83 | 1009.9 |
| 20260507010037 | 66 | 215 | 2.6 | 6.1 | 0.00 | 0.13 | 0.13 | 83 | 1009.9 |
| 20260507005511 | 66 | 288 | 2.6 | 6.1 | 0.00 | 0.13 | 0.13 | 83 | 1009.8 |
| 20260507005012 | 66 | 267 | 2.6 | 6.1 | 0.00 | 0.13 | 0.13 | 82 | 1009.6 |
| 20260507004526 | 66 | 268 | 1.7 | 5.2 | 0.00 | 0.13 | 0.13 | 82 | 1009.6 |
| 20260507004011 | 66 | 265 | 1.7 | 4.3 | 0.00 | 0.13 | 0.13 | 82 | 1009.7 |
| 20260507003508 | 66 | 207 | 1.7 | 6.1 | 0.00 | 0.13 | 0.13 | 82 | 1009.7 |
| 20260507003025 | 67 | 240 | 1.7 | 6.1 | 0.00 | 0.13 | 0.13 | 81 | 1009.5 |
| 20260507002507 | 67 | 267 | 1.7 | 6.1 | 0.00 | 0.13 | 0.13 | 81 | 1009.4 |
| 20260507002006 | 67 | 207 | 2.6 | 6.1 | 0.00 | 0.13 | 0.13 | 80 | 1009.4 |
| 20260507001528 | 67 | 211 | 1.7 | 6.1 | 0.00 | 0.13 | 0.13 | 80 | 1009.5 |
| 20260507001008 | 67 | 227 | 2.6 | 9.6 | 0.00 | 0.13 | 0.13 | 80 | 1009.5 |
| 20260507000512 | 67 | 250 | 2.6 | 9.6 | 0.00 | 0.13 | 0.13 | 79 | 1009.5 |
| 20260507000032 | 68 | 233 | 2.6 | 7.0 | 0.00 | 0.13 | 0.13 | 79 | 1009.6 |
| 20260506235510 | 68 | 267 | 3.5 | 7.8 | 0.00 | 0.13 | 0.13 | 79 | 1009.5 |
| 20260506235011 | 68 | 286 | 2.6 | 7.8 | 0.00 | 0.13 | 0.13 | 79 | 1009.6 |
| 20260506234526 | 68 | 271 | 1.7 | 10.4 | 0.00 | 0.13 | 0.13 | 79 | 1009.6 |
| 20260506234012 | 68 | 291 | 4.3 | 10.4 | 0.00 | 0.13 | 0.13 | 78 | 1009.6 |
| 20260506233508 | 68 | 271 | 1.7 | 7.0 | 0.00 | 0.13 | 0.13 | 78 | 1009.5 |
| 20260506233028 | 69 | 276 | 3.5 | 9.6 | 0.00 | 0.13 | 0.13 | 78 | 1009.4 |
| 20260506232506 | 69 | 267 | 3.5 | 9.6 | 0.00 | 0.13 | 0.13 | 77 | 1009.1 |
| 20260506232011 | 69 | 246 | 1.7 | 8.7 | 0.00 | 0.13 | 0.13 | 78 | 1009.0 |
| 20260506231528 | 69 | 263 | 3.5 | 8.7 | 0.00 | 0.13 | 0.13 | 77 | 1009.0 |
| 20260506231007 | 69 | 292 | 1.7 | 7.0 | 0.00 | 0.13 | 0.13 | 77 | 1009.0 |
| 20260506230506 | 69 | 236 | 1.7 | 7.0 | 0.00 | 0.13 | 0.13 | 77 | 1009.2 |
| 20260506230032 | 69 | 240 | 3.5 | 8.7 | 0.00 | 0.13 | 0.13 | 77 | 1009.2 |
| 20260506225511 | 69 | 248 | 2.6 | 8.7 | 0.00 | 0.13 | 0.13 | 77 | 1009.3 |
| 20260506225008 | 69 | 277 | 3.5 | 7.8 | 0.00 | 0.13 | 0.13 | 77 | 1009.2 |
| 20260506224528 | 69 | 278 | 3.5 | 9.6 | 0.00 | 0.13 | 0.13 | 76 | 1009.2 |
| 20260506224007 | 70 | 271 | 2.6 | 9.6 | 0.00 | 0.13 | 0.13 | 76 | 1009.1 |
| 20260506223515 | 69 | 256 | 2.6 | 9.6 | 0.00 | 0.13 | 0.13 | 76 | 1009.2 |
| 20260506223026 | 70 | 288 | 3.5 | 9.6 | 0.00 | 0.13 | 0.13 | 75 | 1009.2 |
| 20260506222509 | 70 | 259 | 4.3 | 9.6 | 0.00 | 0.13 | 0.13 | 75 | 1009.2 |
| 20260506222008 | 70 | 277 | 3.5 | 8.7 | 0.00 | 0.13 | 0.13 | 75 | 1009.3 |
| 20260506221514 | 70 | 246 | 2.6 | 8.7 | 0.00 | 0.13 | 0.13 | 74 | 1009.3 |
| 20260506221007 | 70 | 279 | 3.5 | 9.6 | 0.00 | 0.13 | 0.13 | 74 | 1009.3 |
| 20260506220504 | 70 | 244 | 4.3 | 9.6 | 0.00 | 0.13 | 0.13 | 74 | 1009.2 |
| 20260506220022 | 71 | 247 | 2.6 | 11.3 | 0.00 | 0.13 | 0.13 | 74 | 1009.2 |
| 20260506215509 | 71 | 227 | 5.2 | 12.2 | 0.00 | 0.13 | 0.13 | 73 | 1009.1 |
| 20260506215007 | 71 | 219 | 5.2 | 15.6 | 0.00 | 0.13 | 0.13 | 72 | 1009.1 |
| 20260506214515 | 71 | 196 | 3.5 | 15.6 | 0.00 | 0.13 | 0.13 | 73 | 1009.0 |
| 20260506214008 | 71 | 281 | 7.8 | 15.6 | 0.00 | 0.13 | 0.13 | 72 | 1008.9 |
| 20260506213508 | 71 | 286 | 3.5 | 15.6 | 0.00 | 0.13 | 0.13 | 73 | 1009.0 |
| 20260506213027 | 71 | 231 | 6.1 | 10.4 | 0.00 | 0.13 | 0.13 | 72 | 1009.1 |
| 20260506212508 | 71 | 240 | 5.2 | 10.4 | 0.00 | 0.13 | 0.13 | 72 | 1009.4 |
| 20260506212005 | 71 | 248 | 4.3 | 10.4 | 0.00 | 0.13 | 0.13 | 73 | 1009.4 |
| 20260506211524 | 71 | 279 | 4.3 | 13.0 | 0.00 | 0.13 | 0.13 | 73 | 1009.1 |
| 20260506211003 | 70 | 267 | 5.2 | 13.9 | 0.00 | 0.13 | 0.13 | 73 | 1009.2 |
| 20260506210505 | 70 | 263 | 7.8 | 13.9 | 0.00 | 0.13 | 0.13 | 74 | 1009.2 |
| 20260506210025 | 70 | 250 | 6.1 | 12.2 | 0.00 | 0.13 | 0.13 | 74 | 1009.2 |
| 20260506205504 | 70 | 281 | 5.2 | 11.3 | 0.00 | 0.13 | 0.13 | 74 | 1009.1 |
| 20260506205008 | 70 | 259 | 4.3 | 12.2 | 0.00 | 0.13 | 0.13 | 74 | 1009.1 |
| 20260506204519 | 69 | 167 | 6.1 | 11.3 | 0.00 | 0.13 | 0.13 | 74 | 1009.1 |
| 20260506204002 | 69 | 265 | 4.3 | 13.0 | 0.00 | 0.13 | 0.13 | 74 | 1009.0 |
| 20260506203503 | 69 | 251 | 6.1 | 13.0 | 0.00 | 0.13 | 0.13 | 74 | 1009.1 |
| 20260506203028 | 69 | 266 | 6.1 | 13.0 | 0.00 | 0.13 | 0.13 | 74 | 1009.2 |
| 20260506202504 | 69 | 159 | 4.3 | 12.2 | 0.00 | 0.13 | 0.13 | 75 | 1009.1 |
| 20260506202007 | 69 | 258 | 5.2 | 13.9 | 0.00 | 0.13 | 0.13 | 76 | 1009.1 |
| 20260506201526 | 69 | 237 | 4.3 | 13.9 | 0.00 | 0.13 | 0.13 | 75 | 1009.1 |
| 20260506201005 | 69 | 121 | 7.0 | 12.2 | 0.00 | 0.13 | 0.13 | 75 | 1009.3 |
| 20260506200506 | 69 | 285 | 4.3 | 11.3 | 0.00 | 0.13 | 0.13 | 76 | 1009.3 |
| 20260506200024 | 69 | 227 | 3.5 | 10.4 | 0.00 | 0.13 | 0.13 | 76 | 1009.1 |
| 20260506195504 | 68 | 210 | 4.3 | 10.4 | 0.00 | 0.13 | 0.13 | 77 | 1009.4 |
| 20260506195010 | 68 | 309 | 3.5 | 9.6 | 0.00 | 0.13 | 0.13 | 77 | 1009.3 |
| 20260506194525 | 67 | 239 | 2.6 | 8.7 | 0.00 | 0.13 | 0.13 | 78 | 1009.1 |
| 20260506194006 | 67 | 226 | 3.5 | 9.6 | 0.00 | 0.13 | 0.13 | 78 | 1009.3 |
| 20260506193507 | 67 | 255 | 4.3 | 9.6 | 0.00 | 0.13 | 0.13 | 79 | 1009.2 |
| 20260506193025 | 66 | 221 | 3.5 | 7.8 | 0.00 | 0.13 | 0.13 | 79 | 1009.5 |
| 20260506192504 | 66 | 233 | 3.5 | 10.4 | 0.00 | 0.13 | 0.13 | 79 | 1009.3 |
| 20260506192008 | 66 | 226 | 5.2 | 14.8 | 0.00 | 0.13 | 0.13 | 79 | 1009.4 |
| 20260506191527 | 66 | 280 | 5.2 | 14.8 | 0.00 | 0.13 | 0.13 | 79 | 1009.8 |
| 20260506191006 | 66 | 254 | 3.5 | 7.8 | 0.00 | 0.13 | 0.13 | 81 | 1009.7 |
| 20260506190508 | 66 | 225 | 3.5 | 7.8 | 0.00 | 0.13 | 0.13 | 81 | 1009.8 |
| 20260506190026 | 66 | 301 | 2.6 | 8.7 | 0.00 | 0.13 | 0.13 | 81 | 1009.8 |
| 20260506185504 | 66 | 211 | 4.3 | 10.4 | 0.00 | 0.13 | 0.13 | 81 | 1009.8 |
| 20260506185007 | 66 | 248 | 3.5 | 10.4 | 0.00 | 0.13 | 0.13 | 81 | 1009.9 |
| 20260506184507 | 66 | 246 | 5.2 | 10.4 | 0.00 | 0.13 | 0.13 | 81 | 1009.9 |
| 20260506184007 | 66 | 286 | 1.7 | 11.3 | 0.00 | 0.13 | 0.13 | 82 | 1010.0 |
| 20260506183510 | 65 | 329 | 3.5 | 11.3 | 0.00 | 0.13 | 0.13 | 82 | 1010.2 |
| 20260506183006 | 65 | 287 | 3.5 | 10.4 | 0.00 | 0.13 | 0.13 | 81 | 1010.1 |
| 20260506182504 | 65 | 234 | 4.3 | 13.9 | 0.00 | 0.13 | 0.13 | 82 | 1010.1 |
| 20260506182011 | 65 | 250 | 7.0 | 13.9 | 0.00 | 0.13 | 0.13 | 81 | 1010.1 |
| 20260506181513 | 65 | 261 | 2.6 | 13.0 | 0.00 | 0.13 | 0.13 | 82 | 1010.1 |
| 20260506181007 | 65 | 273 | 7.0 | 13.0 | 0.00 | 0.13 | 0.13 | 82 | 1010.1 |
| 20260506180517 | 65 | 227 | 7.0 | 11.3 | 0.00 | 0.13 | 0.13 | 82 | 1010.1 |
| 20260506180014 | 65 | 218 | 6.1 | 10.4 | 0.00 | 0.13 | 0.13 | 82 | 1010.2 |
| 20260506175506 | 65 | 288 | 4.3 | 9.6 | 0.00 | 0.13 | 0.13 | 82 | 1010.1 |
| 20260506175008 | 65 | 232 | 4.3 | 10.4 | 0.00 | 0.13 | 0.13 | 82 | 1010.2 |